Overview Statistics Trail Chart Weather Telemetry Raw packets
 

This is the latest recevied weather packets stored in our database for station/object SV9TNF-56. If no packets are shown the sender has not sent any weather packets the latest 10 day(s).

<< 19 20 21 22 23 24 25 >>
Time Temp. Humidity Pressure Rain* Wind** Luminosity Snow
1788523482 26.67° C 46% 1010.5 hPa 0 mm 18.33 m/s, 164° - -
1788523182 26.67° C 45% 1010.2 hPa 0 mm 17.88 m/s, 128° - -
1788522882 26.67° C 44% 1010.5 hPa 0 mm 21.46 m/s, 267° - -
1788522582 26.67° C 44% 1010.5 hPa 0 mm 21.46 m/s, 274° - -
1788522281 27.22° C 42% 1010.8 hPa 0 mm 21.46 m/s, 179° - -
1788521981 27.22° C 42% 1010.8 hPa 0 mm 42.47 m/s, 246° - -
1788521681 27.22° C 42% 1010.5 hPa 0 mm 19.22 m/s, 240° - -
1788521381 27.22° C 42% 1010.5 hPa 0 mm 15.2 m/s, 197° - -
1788521081 27.22° C 41% 1010.5 hPa 0 mm 24.14 m/s, 228° - -
1788520781 27.22° C 42% 1010.5 hPa 0 mm 24.14 m/s, 300° - -
1788520481 27.78° C 42% 1010.5 hPa 0 mm 17.88 m/s, 258° - -
1788520181 27.22° C 41% 1010.8 hPa 0 mm 7.6 m/s, 232° - -
1788519881 27.22° C 42% 1010.5 hPa 0 mm 12.52 m/s, 327° - -
1788519580 27.22° C 43% 1010.8 hPa 0 mm 38.89 m/s, 234° - -
1788519280 27.22° C 43% 1010.8 hPa 0 mm 19.22 m/s, 218° - -
1788518981 27.78° C 45% 1010.8 hPa 0 mm 12.96 m/s, 145° - -
1788518680 27.22° C 46% 1010.8 hPa 0 mm 14.75 m/s, 269° - -
1788518380 26.67° C 45% 1010.8 hPa 0 mm 12.52 m/s, 175° - -
1788518080 26.67° C 46% 1010.5 hPa 0 mm 32.63 m/s, 262° - -
1788517780 26.67° C 45% 1010.8 hPa 0 mm 13.86 m/s, 222° - -
1788517480 27.22° C 45% 1010.5 hPa 0 mm 31.29 m/s, 252° - -
1788517180 26.67° C 47% 1010.8 hPa 0 mm 33.08 m/s, 294° - -
1788516880 26.67° C 48% 1010.8 hPa 0 mm 24.59 m/s, 155° - -
1788516579 26.67° C 54% 1010.5 hPa 0 mm 15.2 m/s, 194° - -
1788516279 26.11° C 57% 1010.8 hPa 0 mm 13.86 m/s, 324° - -

* Rain latest hour (hover to see other rain measurements)
** Current wind speed in m/s (hover to see current wind gust speed)